[Date Prev][Date Next][Thread Prev][Thread Next][Date Index][Thread Index]

[jamsat-news:1102] jas2info #143



========================   最新情報   ==============================

        Last updated :Sat.12-Jun.-1999 16:30 (JST) #143

====================================================================
   
     衛星情報 FOシリーズの軌道要素、テレメトリ、QSOの状況等を
   まとめてみました.

  1)  FO−29(ふじ3号)は、6月12日(土)13:22(JST)の
     パスではJARLのホームページにあるようにJAアナログモードで運用
  されていました. 
       
 ■ 軌道要素1:「jamsat−keps:895」より
              SB KEPS @ AMSAT  $ORB99162.N
       2Line Orbital Elements 99162.AMSAT

 HR AMSAT ORBITAL ELEMENTS FOR AMATEUR SATELLITES IN NASA FORMAT
 FROM WA5QGD FORT WORTH,TX June 11, 1999
 SEND SUBSCRIBE/UNSUBSCRIBE TO majordomo@amsat.org ONLY
 BID: ORB99162.N
  
 DECODE 2-LINE ELSETS WITH THE FOLLOWING KEY:
 1 AAAAAU 00  0  0 BBBBB.BBBBBBBB  .CCCCCCCC  00000-0  00000-0 0  DDDZ
 2 AAAAA EEE.EEEE FFF.FFFF GGGGGGG HHH.HHHH III.IIII JJ.JJJJJJJJKKKKKZ
 KEY: A-CATALOGNUM B-EPOCHTIME C-DECAY D-ELSETNUM E-INCLINATION F-RAAN
 G-ECCENTRICITY H-ARGPERIGEE I-MNANOM J-MNMOTION K-ORBITNUM Z-CHECKSUM

 TO ALL RADIO AMATEURS BT

  FO-29
 1 24278U 96046B   99161.40613156  .00000046  00000-0  80315-4 0  2512
 2 24278  98.5617 113.4596 0352139 111.7145 252.1868 13.52670067138891

 ■ 軌道要素2:「jamsat−keps:894」より                         
         SB KEPS @ AMSAT  $ORB99162.O
         Orbital Elements  99162.OSCAR

 HR AMSAT ORBITAL ELEMENTS FOR OSCAR SATELLITES
 FROM WA5QGD FORT WORTH,TX June 11, 1999
 SEND SUBSCRIBE/UNSUBSCRIBE TO majordomo@amsat.org ONLY
 BID: ORB99162.O
 TO ALL RADIO AMATEURS BT
 
  Satellite: FO-29
 Catalog number: 24278
 Epoch time:      99161.40613156
 Element set:     251
 Inclination:       98.5617 deg
 RA of node:       113.4596 deg
 Eccentricity:    0.0352139
 Arg of perigee:   111.7145 deg
 Mean anomaly:     252.1868 deg
 Mean motion:   13.52670067 rev/day
 Decay rate:        4.6e-07 rev/day^2
 Epoch rev:           13889
 Checksum:              321
 -----------------------------------------------------------
  2)FO−29(ふじ3号)の 6月12日(土)の14:24−14:42(JST)の
     パスではJAアナログモードで運用されていました.10日からのテレメトリの一部分
  は次のようになっていました.
 
   AS13914C  12Jun99
   JST  15:08 - 15:23

                                  16 77 55 75 60 93 90 9F 90 BE BC BD BE BA 
 HI HI AE C7 88 55 0O 47 FF 0D 00 16 45 56 7B 60 93 90 9F 93 BE BC BD BD BA 
 HI HI AE C7 88 55 07 47 FF 0D 00 16 52 4B 73 60 93 91 A0 8B BE BC BE BD BA 
 HI HI AE C7 88 55 0C 47 FF 0D 00 16 7F 41 74 60 93 92 A0 8F BE BC BE BD BA 
 HI HI AE C7 88 55 11 47 FF 0D 00 16 79 3D 75 60 93 91 A0 7D BE BC BD BD BA 
 HI HI AE C7 88 55 16 47 FF 0D 00 16 56 3D 7D 60 93 90 B0 8D BD BC BD BD BA 
 HI HI AE C7 88 55 1B 47 FF 0D 00 16 53 3B 79 60 94 90 B0 7B BE BC BD BD BA 
 HI HI AE C7 88 55 00 47 FF 0D 00 16 68 3A 76 4A 95 91 B0 84 BE BC BD BD BA 
 HI HI AE C7 88 55 05 47 FF 0D 00 16 79 33 72 60 93 91 A0 8E BD BB BD BD BA 
 HI HI AE C7 88 55 0A 47 FF 0D 00 16 71 30 80 60 94 91 B0 88 BD BB BD BD BA 
 HI HI AE C7 88 55 0F 47 FF 0D 00 16 5C 2F 85 60 96 93 B0 86 BD BB BD BD BA 
 HI HI AE C7 88 55 14 47 FF 0D 00 16 4F 34 85 60 94 91 B0 84 BD BB BD BD BA 
 HI HI AE 07 88 55 19 47 FF 0D 00 16 6D 3B 80 60 93 90 B0 5C BD BB BD BD BA 
 HI HI AE C7 88 55 1E 47 FF 0D 00 16 91 39 89 60 95 92 B0 84 BD BB BC BC BA 
 HI HI AE C7 88 55 03 47 FF 0D 00 16 79 32 90 60 94 91 B0 85 BD BB BD BD BA 
 HI HI AE C7 88 55 09 47 FF 0D 00 16 43 30 8E 60 94 91 B0 6E BD BB BC BC BA 
 HI HI AE C7 88 55 0E 47 FF 0D 00 16 4C 46 89 60 94 91 B0 75 BD BA BC BC BA 
 HI HI AE C7 88 55 13 47 FF 0D 00 16 95 57 8B 42 95 92 B0 91 BD BA BC BC 5A 
 HI HI AE C7 88 55 18 47 FF 0D 00 16 A1 44 95 60 93 92 B0 87 BC BA BC BC BA 
 HI HI AE C7 88 55 1D 47 FF 0D 00 16 47 3C 94 5F 93 90 B0 83 BC BA BC BC BA 
 HI HI AE C7 88 55 02 47 FF 0D 00 16 29 4F 90 60 93 91 B0 94 BC BA BC BC BA 

   AS13913C  12Jun99
   JST  13:23 - 13:38

 HI HI AE C7 88 55 1F 47 FF 0D 00 16 4F 45 85 48 95 93 A1 7B BE BC BD BD BA 
 HI HI AE C7 88 55 03 47 FF 0D 00 16 61 44 84 49 95 92 A1 7D BE BC BE BD BA 
 HI HI AE C7 88 55 08 47 FF 0D 00 16 81 42 80 60 94 92 A0 82 BE BC BD BD BA 
 HI HI AE C7 88 55 0D 47 FF 0D 00 16 7A 3F 7D 60 93 90 9E 7B BD BB BD BD BA 
 HI HI AE C7 88 55 12 47 FF 0D 00 16 60 3D 7F 60 94 90 B0 6E BD BC BD BD B9 
 HI HI AE 07 88 55 17 47 FF 0D 00 16 57 3A 7B 4C 95 93 B0 8E BE BB BD BD BA 
 HI HI AE C7 88 55 0A 47 FF 0D 00 16 6A 36 7F 60 94 90 B0 78 BD BC BD BD BA 
 HI HI AE 07 88 55 01 47 FF 0D 00 16 7C 35 7F 60 95 92 A0 04 BD BB BD BD BA 
 HI HI AE C7 88 55 06 47 FF 0D 00 16 73 39 84 60 94 91 B0 84 BD BB BD BD BA 
 HI HI AE 07 88 55 0C 47 FF 0D 00 16 53 3C 7D 60 92 90 9F 78 BD BB BD BD BA 
 HI HI AE C7 88 55 11 47 FF 0D 00 16 4A 3A 7F 4C 96 92 B0 88 BD BB BD BD BA 
 HI HI AE C7 88 55 16 47 FF 0D 00 16 79 32 7D 60 94 91 B0 66 BD BB BD BD BA 
 HI HI AE C7 88 55 1D 47 FF 0D 00 16 8E 3A 84 60 94 91 B0 93 BD BB BC BC BA 
 HI HI AE C7 88 55 00 47 FF 0D 00 16 5B 47 79 60 93 90 B0 76 BD BB BC BC BA 
 HI HI AE C7 88 55 05 47 FF 1E 00 16 31 49 79 60 94 90 B0 95 BD BB BC BC BA 
 HI HI AE C7 88 55 14 47 FF 0D 00 16 84 51 91 60 93 90 B0 95 BC BA BC BC BA 
 HI HI AE C7 88 55 19 47 FF 0D 00 16 32 5F 94 60 93 90 B0 7E BC BA BC BC BA 
 HI HI AE C7 88 55 1F 47 FF 0D 00 6I 77 6E 94 60 93 92 A1 86 BC BA BC BB BA 
 HI HI AE C7 88 55 04 47 FF 0D 00 61 55

   AS13901C  11Jun99
   JST  16:10 - 16:18

 HI HI AE C7 88 55 0D 47 FF 0D 00 16 76 42 7F 60 94 92 B0 6D BD BB BD BD B9 
 HI HI AE C7 88 55 0F 47 1E 0D 00 16 81 3A 7C 60 94 92 B0 7A BD BB BC BC BA 
 HI HI AE C7 88 55 18 47 FF 0D 00 16 45 37 8C 44 95 92 B0 8F BD BA BC BC BA 
 HI HI AE C7 88 55 1D 47 FF 0D 00 16 67 49 84 49 94 92 B0 AC BC BA BC BC BA 
 HI HI AE C7 88 55 02 46 FF 0D 00 16 A4 47 87 46 97 92 

   AS13887C  10Jun99
   JST   15:12 - 15:17
   Freq.   435.805 - 435.787MHz
                                  16 3F 5A 82 60 93 90 9F 83 BE BC BD BD B9 
 HI HI AE C7 88 51 1B 3D FF 0D 00 16 6A 4D 7F 60 93 91 9F 7E BD BC BD BD B9 
 HI HI AE C7 88 51 00 3D FF 0D 00 16 89 45 80 49 95 92 A0 72 BE BC BD BD B9 
 HI HI AE C7 87 51 05 3D FF 25 00 16 6E 43 81 49 95 92 A0 74 BD BC BD BD B9 
 HI HI AE C7 88 51 0A 3D FF 0D 00 16 4D 42 86 47 95 92 A1 7C BD BB BD BD BA 
 HI HI AE C7 88 51 0F 3D FF 1E 00 16 5B 40 85 60 93 91 A0 93 BD BB BD BD B9 
 HI HI AE C7 88 51 14 3D FF 0D 00 16 75 3B 7F 60 93 90 B0 7D BD BB BD BD B9 
 HI HI AE C7 88 51 19 3D 1E  D 00 16 7B 35 78 60 93 90 B0 81 BD BB BD BD B9 
 HI HI AE C7 88 51 1E 3D FF 0D 00 16 6C 33 7F 48 97 92 B0 98 BD BB BD BD B9 
 HI HI AE C7 88 51 03 3D FF 0D 00 16 57 31 82 60 93 90 B0 7D BD BB BC BD B9  
 HI HI AE C7 88 51 0A 3D FF 0D 00 16 53 38 8B 61 94 91 B0 95 BD BB BC BD BA 
 HI HI AE C7 88 51 0E 3D FF 0D 00 16 71 46 BE 61 93 90 B0 7C BD BB BC BD B9 
 HI HI AE C7 88 51 13 3D FF 0D 00 16 8F 3B 8F 5F 93 92 A1 8C BD BB BC BC B9 
 HI HI AE C7 88 51 18 3D FF 0D 00 16 7B 32 94 61 94 91 B0 87 BD BB BC BC B9 
 HI HI AE C7 88 51 1D 3D FF 0D 00 16 47 2E 90 60 94 91 B0 77 BD BA BC BC BA 
 HI HI AE C7 8T 51 02 3D FF OD 00 16 45 41 8A 60 93 91 B0 82 BD BA BC BC BA 
 HI HI AE C7 87 I1 05 3D FF 1A 09 16 8B 53 81 60 93 90 B0 D3 BD BA BC BC BA 
 HI HI AE C7 88 51 0D 3D FF 0D 00 16 A6 4A 89 B0 94 90 B0 7D BC BA BC BC BA 
 HI HI AE C7 88 51 12 3D FF 0D 00 16 5B 3A 88 60 94 91 B0 7D BC BA BC BC BA 
 HI HI AE C7 86 51 17 3D FF 0D 00 16 28 47 88 60 96 92 B0 B2 BC BA BC BC BA 
 HI HI AE C7 88 51 1C 3D FF 0D 00 16 6F 64 77 60 93 90 B0 75 BC BA BC BC BA 
 
 3)テレメトリ換算値例
  
  。Aアナログモード
   AS13913C  12Jun99
   JST  13:23 - 13:38
  のテレメトリの最初の行の換算値例

  テレメトリ	内   容		換算値	単 位
 3C	磁気センサーZ軸=	38725.5	nT
 3D	磁気センサX軸	=	33823.5	nT
 4A	太陽電池発生電流=	 1303.9	mA
 4B	B充放電電流	=	 -588.8	mA
 4C	B端子電圧	=	   16.0	V
 4D	B中間端子電圧	=	    7.1	V
 5A	バス電圧	=	   15.8	V
 5B	JTA送信電力	=	  701.4	mW
 5C 	構体温度1	=	    8.1	℃
 5D	構体温度2	=	    8.9	℃
 6A	構体温度3	=	    8.5	℃
 6B	構体温度4	=	    8.5	℃
 6C	Bセル温度	=	    9.6	℃
 
 ■複船▲淵蹈哀癲璽
   AS13913C  12Jun99
   JST  13:23 - 13:38
  テレメトリの最後の行の換算値例
  
 テレメトリ 内   容		換算値	単 位
 3C	磁気センサーZ軸=	20098.0	nT
 3D	磁気センサX軸	=	38725.5	nT
 4A	太陽電池発生電流=	 1411.8	mA
 4B	B充放電電流	=	 -118.4	mA
 4C	B端子電圧	=	   15.8	V
 4D	B中間端子電圧	=	    7.0	V
 5A	バス電圧	=	   17.3	V
 5B	JTA送信電力	=	  863.9	mW
 5C 	構体温度1	=	    8.9	℃
 5D	構体温度2	=	    9.6	℃
 6A	構体温度3	=	    8.9	℃
 6B	構体温度4	=	    8.9	℃
 6C	Bセル温度	=	    9.6	℃
  
  *計算処理は OFFICE 97 を使用.
  *一回遅れのJAアナログテレメトリと比較してみましょう.
   
 ==============================================================================
  4)FO−20(ふじ2号)のCWテレメトリは5月10日(月)18:27(JST)の
     パスではテレメトリーが単一トーンの連続音から唸りを伴った連続音、さらにゆらぎの
     ある信号になり、いままでより若干信号が弱くなっていました.

 -----------------------------  FO - 20 軌道要素 ----------------------------------
 
 ■ 軌道要素1 :出典は「ふじ3号」に同じ. 
  
  FO-20
 1 20480U 90013C   99161.08602328 -.00000048  00000-0 -36417-4 0 01612
 2 20480 099.0244 357.1608 0540529 180.6256 179.4224 12.83252524437420
 
 ■ 軌道要素2 :出典は「ふじ3号」に同じ.  
               
  Satellite: FO-20
 atalog number: 20480
 Epoch time:      99161.08602328
 Element set:    0161
 Inclination:      099.0244 deg
 RA of node:       357.1608 deg
 Eccentricity:    0.0540529
 Arg of perigee:   180.6256 deg
 Mean anomaly:     179.4224 deg
 Mean motion:   12.83252524 rev/day
 Decay rate:       -4.8e-07 rev/day^2
 Epoch rev:           43742
 Checksum:              297

  ====================    FO-29 の テレメトリ解析プログラム ==========================
  
   JE9PEL/1局 脇田 美根夫氏がFO−29のテレメトリ解析プログラムの
  バージョンアップをされました[jamsat-bb:4543]にレポートされていま
  したので転載させて頂きました.
 Updated:

   fo29tlm5.exe 衛星FO-29 テレメトリ自動解析プログラム V5.00

   fo29cwt2.exe 衛星FO-29 CWテレメトリ数値解析プログラム V2.00

 ----------------------------------------------
 Name : JE9PEL/1 脇田
 Mail : je9pel@jamsat.or.jp
 URL  : http://www.ne.jp/asahi/hamradio/je9pel/
 QTH  : Yokohama, Japan
 Date : 12 Jun. 1999
 ----------------------------------------------
    =====================================================================

 5)JARL のホームページに新しい運用追加予定が記載されていましたのでご紹介します.
       ( http://www.jarl.or.jp/Japanese/3_Fuji/uy.htm )

        ■ ふじ3号/FO−29 ■  
  
    *** 運用予定について ***
   
  ☆6月07日 〜 6月14日     アナログ系運用
   6月14日 〜 6月21日     デジタル系1200bpsメールボックス運用
   6月21日 〜 7月05日     アナログ系運用

